Regional Weather Roundup
Issued by NWS

Home | Current Version | Previous Version | Graphics & Text | Print | Product List | Glossary On
Versions: 1 2 3 4 5 6 7 8 9 10 11 12 13 14 15 16 17 18 19 20 21 22 23 24 25 26 27 28 29 30 31 32 33 34 35 36 37 38 39 40 41 42 43 44 45 46 47 48 49 50
433
ASUS43 KOAX 291410
RWRNE

WEATHER ROUNDUP FOR NEBRASKA
NATIONAL WEATHER SERVICE OMAHA NE
900 AM CDT THU JUN 29 2017

NOTES: SATELLITE DATA IS BEING USED TO AUGMENT CLOUD COVER ABOVE
       12000 FEET.
       "FAIR" INDICATES FEW OR NO CLOUDS BELOW 12,000 FEET WITH NO
       SIGNIFICANT WEATHER AND/OR OBSTRUCTIONS TO VISIBILITY.

  * THESE STATIONS DO NOT REPORT WEATHER SUCH AS RAIN...SNOW OR FOG.

NEZ001>004-019>022-054>056-291500-
NEBRASKA PANHANDLE

CITY           SKY/WX    TMP DP  RH WIND       PRES   REMARKS
SCOTTSBLUFF    SUNNY     63  49  60 NW9       29.95R
ALLIANCE       SUNNY     63  50  62 NW14G20   29.91R
CHADRON        SUNNY     63  51  65 N7        29.91R
GORDON         FAIR      62  56  79 W10       29.87R
KIMBALL        SUNNY     64  50  59 N7        29.99R
SIDNEY         SUNNY     66  54  65 W7        29.96R
$$

NEZ057>060-069>072-079>082-291500-
SOUTHWEST NEBRASKA

CITY           SKY/WX    TMP DP  RH WIND       PRES   REMARKS
NORTH PLATTE   SUNNY     69  59  70 S3        29.81R
IMPERIAL       SUNNY     69  54  58 SE7       29.84R
LEXINGTON      MOSUNNY   71  60  70 CALM      29.78R
MCCOOK         SUNNY     73  63  70 SE18G26   29.80R
OGALLALA       SUNNY     71  59  64 W8        29.86R
$$

NEZ005>010-023>029-035>040-094-291500-
NORTH CENTRAL NEBRASKA

CITY           SKY/WX    TMP DP  RH WIND       PRES   REMARKS
VALENTINE      SUNNY     70  53  54 NE6       29.81R
AINSWORTH      MOSUNNY   65  58  75 CALM      29.80S
BROKEN BOW     PTSUNNY   69  58  67 S8        29.77R
O`NEILL        CLOUDY    68  58  69 NE7       29.76S
ORD            PTSUNNY   70  57  63 SE8G18    29.74R
THEDFORD       CLOUDY    67  60  77 W7        29.81R
$$

NEZ041-046>049-061>064-073>077-083>087-291500-
SOUTH CENTRAL NEBRASKA

CITY           SKY/WX    TMP DP  RH WIND       PRES   REMARKS
GRAND ISLAND   CLOUDY    69  64  84 S8        29.71F
AURORA         CLOUDY    66  64  94 SE24      29.61F
HASTINGS       CLOUDY    70  61  73 S17G26    29.71F
HEBRON         CLOUDY    67  65  93 S7        29.81F
HOLDREGE       MOSUNNY   67  60  77 S17G23    29.79R
KEARNEY *      CLOUDY    70  63  78 S9        29.77R
YORK           LGT RAIN  66  63  88 S17       29.71F
$$

NEZ011>018-030>034-042>045-291500-
NORTHEAST NEBRASKA

CITY           SKY/WX    TMP DP  RH WIND       PRES   REMARKS
NORFOLK        CLOUDY    70  64  81 SE9       29.75R
ALBION         CLOUDY    71  62  73 E3        29.75R
BLAIR          CLOUDY    71  61  70 SW20G25   29.81R
FREMONT        CLOUDY    70  60  69 S18G25    29.77F
TEKAMAH        CLOUDY    72  64  76 S10       29.76S
WAYNE          CLOUDY    70  68  94 E6        29.74S
$$

NEZ050>053-065>068-078-088>093-291500-
SOUTHEAST NEBRASKA

CITY           SKY/WX    TMP DP  RH WIND       PRES   REMARKS
LINCOLN        LGT RAIN  66  62  87 E9        29.75F
OMAHA EPPLEY   CLOUDY    74  63  68 SW15G24   29.81R
BEATRICE       LGT RAIN  65  64  94 SE5       29.76F
FALLS CITY     LGT RAIN  68  63  84 W12       29.89R
NEBRASKA CITY  LGT RAIN  69  68  98 W15       29.88R
PLATTSMOUTH    CLOUDY    70  65  84 SW13      29.86R
$$

NEZ044-045-051>053-067-291500-
OMAHA AREA

CITY           SKY/WX    TMP DP  RH WIND       PRES   REMARKS
OMAHA EPPLEY   CLOUDY    74  63  68 SW15G24   29.81R
BLAIR          CLOUDY    71  61  70 SW20G25   29.81R
FREMONT        CLOUDY    70  60  69 S18G25    29.77F
MILLARD        CLOUDY    73  64  73 SW12G21   29.83R
OFFUTT AFB     CLOUDY    72  65  79 SW8       29.83R
PLATTSMOUTH    CLOUDY    70  65  84 SW13      29.86R
WAHOO          FAIR      69  59  69 MISG      29.77F
$$




USA.gov is the U.S. government's official web portal to all federal, state and local government web resources and services.